Location: Rochester
(43.1610°N, 77.6109°W)
Time: 11:03:13
(UTC-05:00)

Tiangong 2 - Visible Passes

Search period start: 18 February 2019 00:00
Search period end: 28 February 2019 00:00
Orbit: 381 x 390 km, 42.8° (Epoch: 18 February)

Date Brightness Start Highest point End Pass type
(mag) Time Alt. Az. Time Alt. Az. Time Alt. Az.
18 Feb 1.4 18:10:28 10° W 18:13:37 65° SSW 18:16:46 10° ESE visible
18 Feb 3.4 19:47:39 10° WSW 19:49:46 20° SW 19:49:46 20° SW visible
19 Feb 2.6 18:48:08 10° W 18:50:59 31° SSW 18:53:39 11° SE visible
20 Feb 3.9 19:26:45 10° WSW 19:28:06 12° SW 19:29:27 10° S visible
21 Feb 3.6 18:26:41 10° WSW 18:29:04 20° SSW 18:31:28 10° SSE visible
